EW0380 Weather Reports


Display with metric or nautical units.
time (UTC)temp
F
wind
direction
speed
MPH
gust
MPH
rain 1hr
in
rain 24hr
in
rain mn
in
humidity
%
barometer
mb
20260901184920 88 291 4.0 6.0 0.00 0.01 0.01 70 1015.8
20260901183920 87 297 4.0 5.0 0.00 0.01 0.01 70 1015.7
20260901182920 87 292 6.0 8.0 0.00 0.01 0.01 73 1015.7
20260901181920 87 289 6.0 7.0 0.00 0.01 0.01 74 1015.7
20260901180920 87 282 5.0 7.0 0.00 0.01 0.01 73 1015.7
20260901180000 86 261 2.0 2.0 0.00 0.01 0.01 72 1016.1
20260901174920 86 282 5.0 7.0 0.00 0.01 0.01 70 1016.1
20260901173920 86 269 4.0 4.0 0.00 0.01 0.01 70 1016.1
20260901172920 86 272 4.0 7.0 0.00 0.01 0.01 70 1016.4
20260901171920 85 272 4.0 7.0 0.00 0.01 0.01 75 1016.7
20260901170920 84 283 7.0 9.0 0.00 0.01 0.01 74 1016.3
20260901165920 83 285 8.0 9.0 0.00 0.01 0.01 76 1016.3
20260901164920 85 273 5.0 9.0 0.00 0.01 0.01 74 1016.7
20260901163940 85 287 6.0 11.0 0.00 0.01 0.01 73 1016.3
20260901162920 84 284 7.0 9.0 0.00 0.01 0.01 75 1016.3
20260901161920 84 286 8.0 9.0 0.00 0.01 0.01 75 1016.3
20260901160920 84 297 9.0 13.0 0.00 0.01 0.01 76 1016.3
20260901155940 83 285 6.0 7.0 0.00 0.01 0.01 77 1016.3
20260901154920 84 282 6.0 7.0 0.00 0.01 0.01 77 1016.3
20260901153920 84 273 4.0 6.0 0.00 0.01 0.01 74 1015.9
20260901152920 84 290 6.0 9.0 0.00 0.01 0.01 77 1016.6
20260901151940 83 293 8.0 9.0 0.00 0.01 0.01 77 1016.6
20260901150920 82 298 8.0 9.0 0.00 0.01 0.01 79 1016.2
20260901145940 82 273 8.0 11.0 0.00 0.01 0.01 79 1016.2
20260901144921 82 300 9.0 11.0 0.00 0.01 0.01 79 1015.9
20260901143920 82 299 9.0 11.0 0.00 0.01 0.01 77 1015.9
20260901142920 82 288 6.0 7.0 0.00 0.01 0.01 80 1015.9
20260901141921 82 278 7.0 9.0 0.00 0.01 0.01 79 1015.9
20260901140920 82 280 7.0 9.0 0.00 0.01 0.01 80 1015.9
20260901135921 82 275 7.0 9.0 0.00 0.01 0.01 79 1015.9
20260901134920 82 263 5.0 7.0 0.00 0.01 0.01 80 1015.9
20260901133920 81 291 3.0 4.0 0.00 0.01 0.01 82 1015.9
20260901132920 80 202 2.0 3.0 0.00 0.01 0.01 84 1015.9
20260901131920 80 229 2.0 2.0 0.00 0.01 0.01 85 1015.9
20260901130920 80 179 2.0 2.0 0.00 0.01 0.01 85 1016.2
20260901125919 79 246 3.0 4.0 0.00 0.01 0.01 86 1016.2
20260901124920 78 236 1.0 2.0 0.00 0.01 0.01 89 1015.8
20260901123920 77 188 1.0 2.0 0.00 0.01 0.01 89 1016.1
20260901122920 76 0.0 0.0 0.00 0.01 0.01 91 1016.4
20260901121920 76 0.0 0.0 0.00 0.01 0.01 91 1016.0
20260901120920 74 0.0 0.0 0.00 0.01 0.01 93 1016.0
20260901115941 74 0.0 0.0 0.00 0.01 0.01 95 1016.0
20260901114920 74 177 1.0 2.0 0.00 0.01 0.01 95 1015.7
20260901113920 74 0.0 0.0 0.00 0.01 0.01 95 1016.0
20260901112920 74 0.0 0.0 0.00 0.01 0.01 95 1015.7
20260901111920 74 0.0 0.0 0.00 0.01 0.01 95 1015.7
20260901110920 73 168 1.0 2.0 0.00 0.01 0.01 96 1015.8
20260901105920 73 143 2.0 3.0 0.00 0.01 0.01 97 1015.8
20260901104940 73 171 1.0 2.0 0.00 0.01 0.01 96 1015.8
20260901103920 73 129 2.0 5.0 0.00 0.01 0.01 96 1015.8
20260901103020 73 0.0 0.0 0.00 0.01 0.01 96 1015.5
20260901101920 73 0.0 0.0 0.00 0.01 0.01 96 1015.5
20260901100920 73 0.0 0.0 0.00 0.01 0.01 96 1015.5
20260901095922 73 0.0 0.0 0.00 0.01 0.01 96 1015.1
20260901094920 73 187 1.0 3.0 0.00 0.01 0.01 96 1015.1
20260901093920 74 164 0.0 2.0 0.00 0.01 0.01 96 1015.5
20260901092940 74 196 1.0 2.0 0.00 0.01 0.01 95 1015.5
20260901091940 74 182 1.0 2.0 0.00 0.01 0.01 95 1015.2
20260901090920 74 159 4.0 5.0 0.00 0.01 0.01 95 1015.5
20260901085921 74 159 5.0 7.0 0.00 0.01 0.01 95 1015.5
20260901084920 74 166 2.0 3.0 0.00 0.01 0.01 95 1015.5
20260901083920 74 227 2.0 2.0 0.00 0.01 0.01 95 1015.2
20260901082920 74 205 1.0 2.0 0.01 0.01 0.01 94 1015.2
20260901081920 74 169 3.0 5.0 0.01 0.01 0.01 94 1015.5
20260901080920 75 145 2.0 3.0 0.01 0.01 0.01 93 1015.5
20260901075920 75 201 2.0 4.0 0.01 0.01 0.01 92 1015.5
20260901074940 74 201 1.0 2.0 0.01 0.01 0.01 95 1015.8
20260901073920 74 162 0.0 2.0 0.01 0.01 0.01 95 1015.5
20260901072920 74 211 3.0 6.0 0.00 0.00 0.00 93 1015.9
20260901071920 74 240 3.0 5.0 0.00 0.00 0.00 93 1015.9
20260901070920 74 212 1.0 2.0 0.00 0.00 0.00 94 1015.6
20260901065920 74 236 3.0 4.0 0.00 0.00 0.00 94 1015.6
20260901064920 75 218 3.0 5.0 0.00 0.00 0.00 93 1015.9
20260901063920 75 233 1.0 2.0 0.00 0.00 0.00 92 1016.0
20260901062920 74 179 0.0 2.0 0.00 0.00 0.00 92 1015.9
20260901061940 74 0.0 0.0 0.00 0.00 0.00 92 1015.9
20260901060920 74 178 2.0 2.0 0.00 0.00 0.00 91 1015.6
20260901055940 74 174 1.0 2.0 0.00 0.00 0.00 92 1016.3
20260901054920 74 0.0 0.0 0.00 0.00 0.00 91 1016.6
20260901053920 73 150 2.0 2.0 0.00 0.00 0.00 92 1016.2
20260901052920 74 0.0 0.0 0.00 0.00 0.00 91 1016.6
20260901051920 74 171 1.0 3.0 0.00 0.00 0.00 90 1016.6
20260901050920 74 193 1.0 2.0 0.00 0.00 0.00 90 1016.2
20260901045920 73 163 4.0 5.0 0.00 0.00 0.00 91 1016.5
20260901044932 73 109 1.0 2.0 0.00 0.00 0.00 94 1016.5
20260901043920 73 96 2.0 2.0 0.00 0.00 0.00 95 1016.8
20260901042920 73 0.0 0.0 0.00 0.00 0.00 93 1016.5
20260901041920 73 0.0 0.0 0.00 0.00 0.00 94 1016.5
20260901040920 73 0.0 0.0 0.00 0.00 0.00 95 1016.5
20260901035940 73 0.0 0.0 0.00 0.00 0.00 96 1016.5
20260901034920 73 0.0 0.0 0.00 0.01 0.00 95 1016.5
20260901033920 73 0.0 0.0 0.00 0.02 0.00 95 1016.4
20260901032920 72 0.0 0.0 0.00 0.05 0.00 97 1016.4
20260901031920 72 0.0 0.0 0.00 0.05 0.00 98 1016.4
20260901030920 72 0.0 0.0 0.00 0.05 0.00 98 1016.4
20260901025932 72 0.0 0.0 0.00 0.05 0.00 98 1016.8
20260901025000 72 0.0 0.0 0.00 0.05 0.00 99 1016.8
20260901023922 72 0.0 0.0 0.00 0.05 0.00 99 1017.0
20260901022920 72 0.0 0.0 0.00 0.05 0.00 98 1016.6
20260901021920 72 0.0 0.0 0.00 0.05 0.00 97 1017.0
20260901021000 72 0.0 0.0 0.00 0.05 0.00 97 1016.9
20260901015920 73 0.0 0.0 0.00 0.05 0.00 96 1016.9
20260901014920 73 0.0 0.0 0.00 0.05 0.00 94 1016.6
20260901013920 74 0.0 0.0 0.00 0.05 0.00 89 1016.9
20260901012920 75 359 1.0 2.0 0.00 0.05 0.00 89 1016.3
20260901011920 74 0.0 0.0 0.00 0.05 0.00 88 1015.9
20260901010940 73 108 0.0 2.0 0.00 0.05 0.00 95 1015.9
20260901010000 74 0.0 0.0 0.00 0.05 0.00 95 1016.6
20260901004940 74 0.0 0.0 0.00 0.07 0.00 93 1016.2
20260901003921 73 0.0 0.0 0.00 0.07 0.00 98 1016.2
20260901002920 73 0.0 0.0 0.00 0.07 0.00 97 1016.5
20260901001920 73 0.0 0.0 0.00 0.08 0.00 97 1016.9
20260901000920 74 0.0 0.0 0.00 0.09 0.00 96 1016.9
20260901000001 74 0.0 0.0 0.00 0.10 0.00 95 1016.9
20260831234920 74 0.0 0.0 0.00 0.10 0.00 95 1016.9
20260831233920 75 0.0 0.0 0.00 0.10 0.00 93 1016.5
20260831232920 76 0.0 0.0 0.00 0.11 0.00 90 1016.6
20260831231920 76 68 2.0 3.0 0.00 0.12 0.00 89 1016.6
20260831230920 76 19 2.0 2.0 0.00 0.14 0.00 89 1016.6
20260831225920 77 0.0 0.0 0.00 0.14 0.00 87 1016.6
20260831224920 78 354 2.0 3.0 0.00 0.14 0.00 84 1016.7
20260831223920 78 0.0 0.0 0.00 0.14 0.00 86 1016.3
20260831223021 79 294 1.0 2.0 0.00 0.14 0.00 82 1016.3
20260831221920 79 140 2.0 2.0 0.00 0.17 0.00 86 1016.3
20260831220920 79 0.0 0.0 0.00 0.17 0.00 79 1016.0
20260831215920 78 211 4.0 5.0 0.00 0.17 0.00 81 1016.3
20260831214920 79 274 3.0 4.0 0.00 0.17 0.00 78 1017.0
20260831213921 80 288 4.0 6.0 0.00 0.17 0.00 79 1017.3
20260831212920 80 284 2.0 4.0 0.00 0.17 0.00 79 1017.3
20260831211920 80 304 5.0 7.0 0.00 0.17 0.00 78 1017.3
20260831210920 81 304 4.0 5.0 0.00 0.17 0.00 75 1017.7
20260831205920 81 305 4.0 5.0 0.00 0.17 0.00 75 1017.4
20260831204920 81 274 4.0 6.0 0.00 0.17 0.00 73 1017.4
20260831203920 81 298 4.0 5.0 0.00 0.17 0.00 73 1017.4
20260831202940 81 282 3.0 4.0 0.00 0.17 0.00 75 1017.7
20260831201920 81 276 5.0 7.0 0.00 0.17 0.00 72 1017.7
20260831200920 81 279 3.0 4.0 0.00 0.17 0.00 76 1017.7
20260831195920 80 300 5.0 5.0 0.00 0.17 0.00 75 1017.7
20260831194920 79 312 2.0 2.0 0.00 0.17 0.00 81 1017.7
20260831193920 79 312 2.0 3.0 0.00 0.17 0.00 81 1017.7
20260831192920 80 281 3.0 4.0 0.00 0.17 0.00 75 1017.7
20260831191921 80 271 5.0 6.0 0.00 0.17 0.00 74 1017.7
20260831190920 80 295 9.0 9.0 0.00 0.17 0.00 72 1018.0
20260831185940 81 286 5.0 6.0 0.00 0.17 0.00 72 1018.0